Location: Eboldshausen
(51.7766°N, 10.0050°E)
Time: 17:34:24
(UTC+00:00)

CARTOSAT-1 - Pass Details

Date: 15 November 2025
Orbit: 596 x 598 km, 97.5° (Epoch: 09 December)

Event Time Altitude Azimuth Distance (km) Brightness Sun altitude
Exits shadow 18:27:29 43° 321° (NW) 847 4.4 -27.3°
Drops below altitude 10° 18:30:29 10° 341° (NNW) 1,947 6.4 -27.8°
Sets 18:32:41 0° 345° (NNW) 2,854 7.2 -28.1°
